Regional Weather Roundup
Issued by NWS

Home | Current Version | Previous Version | Graphics & Text | Print | Product List | Glossary On
Versions: 1 2 3 4 5 6 7 8 9 10 11 12 13 14 15 16 17 18 19 20 21 22 23 24 25 26 27 28 29 30 31 32 33 34 35 36 37 38 39 40 41 42 43 44 45 46 47 48 49 50
000
ASUS45 KABQ 210110
RWRNM
NEW MEXICO REGIONAL WEATHER ROUNDUP
NATIONAL WEATHER SERVICE ALBUQUERQUE NM
600 PM MST MON FEB 20 2017

NOTE: "FAIR" MEANS FEW OR NO CLOUDS BELOW 12,000 FEET AGL WITH NO
       SIGNIFICANT WEATHER OR OBSTRUCTIONS TO VISION.

      THIS PRODUCT IS RELEASED AS TWO VERSIONS.  ONE VERSION NEAR
      THE TOP OF THE HOUR CONTAINING PRELIMINARY DATA FROM ALBUQUERQUE
      AND OTHER STATIONS.  A FINAL VERSION WITH ADDITIONAL DATA IS
      ISSUED ABOUT 10 MINUTES AFTER THE HOUR.

NMZ501-503-504-510>518-210200-
NORTHWEST PLATEAU/NORTHCENTRAL MOUNTAINS

CITY           SKY/WX    TMP DP  RH WIND       PRES   REMARKS
FARMINGTON     FAIR      50  31  48 NW5       30.23R
LOS ALAMOS     FAIR      47  22  36 CALM      30.26R
SANTA FE       FAIR      50  20  30 N8        30.21R
TAOS             N/A     46  19  34 SW13      30.23R
ANGEL FIRE     FAIR      40  18  40 CALM      30.27R

$$
NMZ402-403-502-505>509-210200-
WESTCENTRAL MOUNTAINS/SOUTHWEST MOUNTAINS

CITY           SKY/WX    TMP DP  RH WIND       PRES   REMARKS
GALLUP         FAIR      47  33  58 S7        30.28S
GRANTS         FAIR      46  20  35 NW9       30.28R
SILVER CITY    FAIR      53  35  51 W15       30.26R

$$
NMZ407-409-411-412-210200-
SOUTHERN DESERTS

CITY           SKY/WX    TMP DP  RH WIND       PRES   REMARKS
DEMING         FAIR      59  34  39 W14       30.24R
LAS CRUCES     FAIR      60  28  30 W8        30.23S
HOLLOMAN AFB   FAIR      60  26  27 W8        30.22R
ALAMOGORDO     FAIR      59  25  27 W8        30.20R
T OR C         FAIR      60  25  26 S8        30.21R

$$
NMZ519>523-210200-
CENTRAL VALLEYS/CENTRAL HIGHLANDS

CITY           SKY/WX    TMP DP  RH WIND       PRES   REMARKS
ALBUQUERQUE    FAIR      57  26  30 N10       30.21R
DOUBLE EAGLE   CLEAR     54  28  37 N6        30.23R
MORIARTY ARPT  FAIR      52  23  33 NW10      30.23R
CLINES CORNERS FAIR      45  23  42 NW17      30.22R
BELEN          FAIR      56  25  29 CALM      30.22R
SOCORRO        FAIR      57  28  33 CALM      30.21R

$$
NMZ524>526-539-540-210200-
SOUTHCENTRAL MOUNTAINS

CITY           SKY/WX    TMP DP  RH WIND       PRES   REMARKS
RUIDOSO        FAIR      48  19  32 W14       30.26R

$$
NMZ527>531-210200-
NORTHEAST HIGHLANDS/NORTHEAST PLAINS

CITY           SKY/WX    TMP DP  RH WIND       PRES   REMARKS
LAS VEGAS      FAIR      47  13  25 N10       30.17R
RATON          NOT AVBL
CLAYTON        FAIR      49  13  23 N7        30.09R

$$
NMZ532>537-210200-
EASTCENTRAL PLAINS

CITY           SKY/WX    TMP DP  RH WIND       PRES   REMARKS
TUCUMCARI      FAIR      61  12  14 SW5       30.06R
CANNON AFB     FAIR      60  17  19 W5        30.10R
CLOVIS AIRPORT FAIR      55  21  26 NW6       30.10R

$$
NMZ028-029-538-210200-
SOUTHEAST PLAINS

CITY           SKY/WX    TMP DP  RH WIND       PRES   REMARKS
ROSWELL        FAIR      65  13  13 NW6         N/A
ARTESIA        FAIR      64  21  19 N5        30.10R
CARLSBAD       FAIR      64  18  17 NW6       30.09R
HOBBS          CLEAR     59  19  21 W7        30.11R


$$




USA.gov is the U.S. government's official web portal to all federal, state and local government web resources and services.